Regional Weather Roundup
Issued by NWS

Home | Current Version | Previous Version | Text Only | Print | Product List | Glossary On
Versions: 1 2 3 4 5 6 7 8 9 10 11 12 13 14 15 16 17 18 19 20 21 22 23 24 25 26 27 28 29 30 31 32 33 34 35 36 37 38 39 40 41 42 43 44 45 46 47 48 49 50
000
ASUS43 KMPX 281201
RWRMN
WEATHER ROUNDUP FOR MINNESOTA
NATIONAL WEATHER SERVICE TWIN CITIES/CHANHASSEN MN
700 AM CDT FRI AUG 28 2015


NOTE: "FAIR" INDICATES FEW OR NO CLOUDS BELOW 12,000 FEET WITH NO
SIGNIFICANT WEATHER AND/OR OBSTRUCTIONS TO VISIBILITY. N/A MEANS
CURRENT SKY AND/OR WEATHER CONDITIONS ARE NOT AVAILABLE.

MNZ060>063-068>070-281300-
   Twin Cities Metro

CITY           SKY/WX    TMP DP  RH WIND       PRES   REMARKS
TWIN CITIES    CLOUDY    64  60  87 SE5       30.01R
6HR MIN TEMP:  63; 6HR MAX TEMP:  66;

ST PAUL        CLOUDY    62  61  96 SE6       30.01R
CRYSTAL        CLOUDY    61  58  90 CALM      29.99S
BLAINE         MOCLDY    63  63 100 CALM      30.01R
LAKEVILLE      CLOUDY    63  63 100 CALM      30.01S
EDEN PRAIRIE   LGT RAIN  65  62  90 CALM      30.00R
6HR MIN TEMP:  63; 6HR MAX TEMP:  66; 6HR PCP: TRACE;

SOUTH ST PAUL  CLOUDY    63  61  92 SE3       30.01R
LAKE ELMO      FAIR      61  61 100 CALM      30.02S
$$
MNZ001>005-007-008-013>017-022>024-027-028-281300-
   Northwest Minnesota

CITY           SKY/WX    TMP DP  RH WIND       PRES   REMARKS
BEMIDJI        FOG       64  64  99 S5        29.93S VSB 1/4
HALLOCK        MOCLDY    63  63 100 S7        29.82F
ROSEAU         MOCLDY    64  57  77 SE8       29.84F
WARROAD        MOCLDY    61  55  82 SE7       29.86F FOG
THIEF RVR FALL MOCLDY   N/A N/A N/A S8        29.89S
CROOKSTON      PTCLDY    64  63  94 S7        29.89S FOG
FOSSTON        CLEAR     63  61  94 S6        29.92F FOG
DETROIT LAKES  FOG       64  64 100 S7        29.95S VSB 1/4
MOORHEAD       PTCLDY    63  61  94 S6        29.93R FOG
PARK RAPIDS    FOG       64  62  93 S8        29.95S VSB 1/2
MAHNOMEN       PTSUNNY   63  63  99 S6        29.92S FOG
$$
MNZ006-009>011-018-025>026-281300-
   North Central Minnesota

CITY           SKY/WX    TMP DP  RH WIND       PRES   REMARKS
BAUDETTE       CLOUDY    61  60  97 CALM      29.89S
FLAG ISLAND    CLOUDY    64  63  94 S7        29.86S FOG
INTL FALLS     MOCLDY    61  60  97 CALM      29.91F
6HR MIN TEMP:  57; 6HR MAX TEMP:  62;

WASKISH        CLOUDY    64  63  94 S3        29.90F
BIG FORK       FOG       63  63 100 SW5       29.94S VSB 3/4
LONGVILLE      CLOUDY    63  63 100 S5        29.95R FOG
GRAND RAPIDS     N/A     63  59  88 S5        29.95S
CRANE LAKE     CLOUDY    59  57  94 S1        29.95S
ORR            CLOUDY    61  57  88 CALM      29.92S VSB 1/4
COOK           FOG       61  61 100 S5        29.96R VSB 1/4
WALKER         CLOUDY    63  62  98 S6        29.93S
$$
MNZ012-019>021-037-281300-
   Northeast Minnesota

CITY           SKY/WX    TMP DP  RH WIND       PRES   REMARKS
DULUTH         CLOUDY    61  58  90 SW9       29.98R
6HR MIN TEMP:  58; 6HR MAX TEMP:  61;

ELY            CLOUDY    61  57  88 SW5       29.96S
HIBBING        FOG       58  57  97 CALM      29.96S VSB 1
EVELETH        FOG       59  59 100 S3        29.98S VSB 1/4
DULUTH HARBOR  CLOUDY    57  54  88 CALM      29.99R
TWO HARBORS    CLOUDY    63  57  82 CALM      29.96R
SILVER BAY     CLOUDY    61  55  82 CALM      29.96R
GRAND MARAIS     N/A     51  47  86 CALM      29.96S
G MARAIS ARPRT MOCLDY    52  48  87 CALM      29.99R
$$
MNZ029>031-032-039>041-046>048-054>057-064-281300-
   West Central Minnesota

CITY           SKY/WX    TMP DP  RH WIND       PRES   REMARKS
FERGUS FALLS   CLEAR     61  61 100 S8        29.95S FOG
WHEATON        CLOUDY    61  61 100 S5        29.97S
MORRIS         CLOUDY    63  63 100 SE3       29.97R FOG
ALEXANDRIA     PTCLDY    63  62  97 S10       30.00R
ELBOW LAKE     FAIR      60  60  99 S9        29.96S
WADENA         PTCLDY    61  61 100 S5        29.97R FOG
GLENWOOD       CLOUDY    63  63 100 CALM      30.00S
APPLETON       PTCLDY    61  59  94 CALM      29.96R FOG
BENSON         MOCLDY    63  59  88 CALM      29.97S
ORTONVILLE     CLOUDY    63  61  94 CALM      29.96R
MADISON        FOG       61  57  88 E6        29.96R VSB 3/4
WILLMAR        FAIR      61  61 100 E6        30.00R
$$
MNZ033>034-036-042>043-049>051-058-059-281300-
   Central Minnesota

CITY           SKY/WX    TMP DP  RH WIND       PRES   REMARKS
ST CLOUD       MOCLDY    58  57  97 S5        30.00R FOG
6HR MIN TEMP:  55; 6HR MAX TEMP:  61;

SAUK CENTRE    CLOUDY    61  61  99 SW3       30.00R
PAYNESVILLE    PTCLDY    60  59  96 CALM      30.00R
AITKIN         PTCLDY    61  55  82 CALM      29.96S
PINE RIVER     FOG       63  63 100 S3        30.00R VSB 1
BRAINERD       CLOUDY    59  59 100 S6        29.98R FOG
STAPLES        PTCLDY    59  59 100 CALM      29.98R FOG
LONG PRAIRIE   FAIR      57  57 100 S5        30.00R
LITTLE FALLS   FOG       54  52  94 CALM      30.00R VSB<1/4
LITCHFIELD     MOCLDY    61  61 100 CALM      30.00R FOG
BUFFALO        MOCLDY    60  58  91 CALM      30.01S
MAPLE LAKE     MOCLDY    60  59  98 CALM      30.01S FOG
$$
MNZ037-044-045-052-053-281300-
   East Central Minnesota

CITY           SKY/WX    TMP DP  RH WIND       PRES   REMARKS
PRINCETON      MOCLDY    63  61  94 S7        30.00S
MORA           PTCLDY    54  54 100 S3        30.01R
CAMBRIDGE      PTCLDY    63  54  72 S6        29.99R
RUSH CITY      PTCLDY    59  58  96 S5        30.01R
MOOSE LAKE     FOG       55  55 100 CALM      29.96F VSB 3/4
HINCKLEY       FOG       52  52 100 CALM      29.99R VSB 1/4
CLOQUET        CLOUDY    61  57  88 SW7       29.98S
MCGREGOR       PTCLDY    59  59 100 CALM      29.98R
$$
MNZ071>073-080-081-089-090-097-098-281300-
   Southwest Minnesota

CITY           SKY/WX    TMP DP  RH WIND       PRES   REMARKS
MONTEVIDEO     PTCLDY    57  57 100 SE5       29.98S FOG
GRANITE FALLS  MOCLDY    59  58  99 NE6       29.98S FOG
CANBY          FOG       60  59  96 E5        29.97R VSB 1/4
MARSHALL       CLOUDY    63  59  88 SE7       29.96F
REDWOOD FALLS  LGT RAIN  64  62  93 S8        29.97R
OLIVIA         MOCLDY    59  57  94 SE7       29.98R
PIPESTONE      MOCLDY    63  61  94 E5        29.94S
WINDOM         CLOUDY    63  61  94 E10       29.97S
WORTHINGTON    CLOUDY    63  59  88 E8        29.95S
JACKSON        CLOUDY    63  61  94 E9        29.97S FOG
TRACY          CLOUDY    64  62  95 SE5       29.96S
SLAYTON        CLOUDY    62  62 100 CALM      29.97S
$$
MNZ065>067-074>077-082>085-091>093-281300-
   South Central Minnesota

CITY           SKY/WX    TMP DP  RH WIND       PRES   REMARKS
MANKATO        CLOUDY    63  59  88 S7        30.01S
NEW ULM        LGT RAIN  63  63 100 SE8       29.98F
ST JAMES       RAIN      64  63  94 SE9       30.00R
FAIRMONT       CLOUDY    63  57  82 SE9       29.98F
GLENCOE        DRIZZLE   64  64  97 CALM      30.00R
FARIBAULT      DRIZZLE   64  61  88 S9        30.02R
OWATONNA       LGT RAIN  64  61  88 S10       30.02S
WASECA         RAIN      63  59  88 MISG      30.04R
ALBERT LEA     RAIN      63  63 100 S7        30.04S
$$
MNZ078>079-086>088-094>096-281300-
   Southeast Minnesota

CITY           SKY/WX    TMP DP  RH WIND       PRES   REMARKS
ROCHESTER      CLOUDY    62  60  93 S15       30.04S
6HR MIN TEMP:  61; 6HR MAX TEMP:  63; 6HR PCP:  0.06;

RED WING       CLOUDY    64  61  88 SE3       30.01S
STANTON        CLOUDY    65  61  87 CALM      30.00R
DODGE CENTER   CLOUDY    63  59  88 S14       30.03S
WINONA         CLOUDY    63  57  82 S3        30.03S
AUSTIN         LGT RAIN  63  61  94 S6        30.06R
PRESTON        CLOUDY    60  58  92 S8        30.06S
$$
ABBREVIATIONS USED IN REMARKS
   TC - TEMPERATURES IN CELSIUS
  WCI - WIND CHILL INDEX
   HX - HEAT INDEX
  VSB - VISIBILITY
$$


USA.gov is the U.S. government's official web portal to all federal, state and local government web resources and services.